Bismarck Municipal Airport Bismarck US
ICAO: KBIS
IATA: BIS
Category: Medium
Scheduled Services: Yes

Elevation: 1661 ft
TransAlt. 18000 ft.

Airport Communications:
APP/DEP:126.3
ATIS:119.35
CTAF:118.3
GND:121.9
ARNG OPS:49.8
GRAND FORKS RDO:122.2
TWR:118.3
UNICOM:122.95

KBIS Zoom In..

If you have problems with the map follow the link
https://www.worldairports.se/pages/airport.php?
ICAO=KBIS

Runways:

(A) RW 03 length 6600 ft width 100 ft
---- / hdg 32

(B) RW 13 length 8794 ft width 150 ft
ILS 111.50 / hdg 131

(C) RW 21 length 6600 ft width 100 ft
---- / hdg 212

(D) RW 31 length 8794 ft width 150 ft
ILS 110.30 / hdg 311

Location; KBIS
Day. 23 / Time. 06.52 Zulu
* Altimeter: 30.35
* Temperature: -06° c. -21.2°f.
* Wind from: 000° Speed 00 kn.
Dewpoint: -08° c.
Visibility: 10 Statute Miles.
Clouds: Clear (automated report).

KBIS 230652Z AUTO 00000KT 10SM CLR M06/M08 A3035 RMK AO2 SLP294 T10561083


Wind - Calm.

 
 
jpsmedia.com for Web Design worldairports.se 2018   terms of use